Year,Month,Day,Hour,Minute,Value (Times are PST for temperature in C)
2010,01,24,00,00,5.30
2010,01,24,00,01,5.30
2010,01,24,00,02,5.30
2010,01,24,00,03,5.30
2010,01,24,00,04,5.30
2010,01,24,00,05,5.30
2010,01,24,00,06,5.30
2010,01,24,00,07,5.30
2010,01,24,00,08,5.30
2010,01,24,00,09,5.30
2010,01,24,00,10,5.30
2010,01,24,00,11,5.30
2010,01,24,00,12,5.30
2010,01,24,00,13,5.30
2010,01,24,00,14,5.30
2010,01,24,00,15,5.30
2010,01,24,00,16,5.30
2010,01,24,00,17,5.30
2010,01,24,00,18,5.30
2010,01,24,00,19,5.30
2010,01,24,00,20,5.30
2010,01,24,00,21,5.30
2010,01,24,00,22,5.30
2010,01,24,00,23,5.30
2010,01,24,00,24,5.30
2010,01,24,00,25,5.30
2010,01,24,00,26,5.30
2010,01,24,00,27,5.30
2010,01,24,00,28,5.30
2010,01,24,00,29,5.30
2010,01,24,00,30,5.30
2010,01,24,00,31,5.30
2010,01,24,00,32,5.30
2010,01,24,00,33,5.30
2010,01,24,00,34,5.30
2010,01,24,00,35,5.30
2010,01,24,00,36,5.30
2010,01,24,00,37,5.30
2010,01,24,00,38,5.30
2010,01,24,00,39,5.30
2010,01,24,00,40,5.30
2010,01,24,00,41,5.30
2010,01,24,00,42,5.20
2010,01,24,00,43,5.20
2010,01,24,00,44,5.20
2010,01,24,00,45,5.20
2010,01,24,00,46,5.20
2010,01,24,00,47,5.20
2010,01,24,00,48,5.20
2010,01,24,00,49,5.20
2010,01,24,00,50,5.20
2010,01,24,00,51,5.20
2010,01,24,00,52,5.20
2010,01,24,00,53,5.10
2010,01,24,00,54,5.10
2010,01,24,00,55,5.10
2010,01,24,00,56,5.10
2010,01,24,00,57,5.10
2010,01,24,00,58,5.10
2010,01,24,00,59,5.10
2010,01,24,01,00,5.10
2010,01,24,01,01,5.10
2010,01,24,01,02,5.10
2010,01,24,01,03,5.00
2010,01,24,01,04,5.00
2010,01,24,01,05,5.00
2010,01,24,01,06,5.00
2010,01,24,01,07,5.00
2010,01,24,01,08,5.00
2010,01,24,01,09,5.00
2010,01,24,01,10,5.00
2010,01,24,01,11,4.90
2010,01,24,01,12,4.90
2010,01,24,01,13,4.90
2010,01,24,01,14,4.90
2010,01,24,01,15,4.90
2010,01,24,01,16,4.90
2010,01,24,01,17,4.90
2010,01,24,01,18,4.90
2010,01,24,01,19,4.90
2010,01,24,01,20,5.00
2010,01,24,01,21,5.00
2010,01,24,01,22,5.00
2010,01,24,01,23,5.00
2010,01,24,01,24,5.00
2010,01,24,01,25,5.00
2010,01,24,01,26,4.90
2010,01,24,01,27,4.90
2010,01,24,01,28,4.90
2010,01,24,01,29,4.90
2010,01,24,01,30,4.90
2010,01,24,01,31,4.90
2010,01,24,01,32,4.90
2010,01,24,01,33,4.90
2010,01,24,01,34,4.90
2010,01,24,01,35,4.90
2010,01,24,01,36,4.90
2010,01,24,01,37,4.90
2010,01,24,01,38,4.90
2010,01,24,01,39,4.90
2010,01,24,01,40,4.80
2010,01,24,01,41,4.80
2010,01,24,01,42,4.80
2010,01,24,01,43,4.80
2010,01,24,01,44,4.80
2010,01,24,01,45,4.80
2010,01,24,01,46,4.80
2010,01,24,01,47,4.70
2010,01,24,01,48,4.70
2010,01,24,01,49,4.70
2010,01,24,01,50,4.70
2010,01,24,01,51,4.60
2010,01,24,01,52,4.60
2010,01,24,01,53,4.60
2010,01,24,01,54,4.60
2010,01,24,01,55,4.60
2010,01,24,01,56,4.60
2010,01,24,01,57,4.60
2010,01,24,01,58,4.60
2010,01,24,01,59,4.60
2010,01,24,02,00,4.50
2010,01,24,02,01,4.50
2010,01,24,02,02,4.50
2010,01,24,02,03,4.50
2010,01,24,02,04,4.50
2010,01,24,02,05,4.50
2010,01,24,02,06,4.50
2010,01,24,02,07,4.40
2010,01,24,02,08,4.40
2010,01,24,02,09,4.40
2010,01,24,02,10,4.40
2010,01,24,02,11,4.40
2010,01,24,02,12,4.40
2010,01,24,02,13,4.40
2010,01,24,02,14,4.40
2010,01,24,02,15,4.40
2010,01,24,02,16,4.40
2010,01,24,02,17,4.40
2010,01,24,02,18,4.40
2010,01,24,02,19,4.40
2010,01,24,02,20,4.40
2010,01,24,02,21,4.40
2010,01,24,02,22,4.40
2010,01,24,02,23,4.40
2010,01,24,02,24,4.40
2010,01,24,02,25,4.40
2010,01,24,02,26,4.40
2010,01,24,02,27,4.50
2010,01,24,02,28,4.50
2010,01,24,02,29,4.50
2010,01,24,02,30,4.50
2010,01,24,02,31,4.50
2010,01,24,02,32,4.50
2010,01,24,02,33,4.60
2010,01,24,02,34,4.60
2010,01,24,02,35,4.60
2010,01,24,02,36,4.60
2010,01,24,02,37,4.60
2010,01,24,02,38,4.60
2010,01,24,02,39,4.60
2010,01,24,02,40,4.60
2010,01,24,02,41,4.60
2010,01,24,02,42,4.60
2010,01,24,02,43,4.60
2010,01,24,02,44,4.60
2010,01,24,02,45,4.60
2010,01,24,02,46,4.60
2010,01,24,02,47,4.60
2010,01,24,02,48,4.50
2010,01,24,02,49,4.50
2010,01,24,02,50,4.50
2010,01,24,02,51,4.50
2010,01,24,02,52,4.50
2010,01,24,02,53,4.50
2010,01,24,02,54,4.50
2010,01,24,02,55,4.50
2010,01,24,02,56,4.40
2010,01,24,02,57,4.40
2010,01,24,02,58,4.40
2010,01,24,02,59,4.40
2010,01,24,03,00,4.40
2010,01,24,03,01,4.40
2010,01,24,03,02,4.30
2010,01,24,03,03,4.30
2010,01,24,03,04,4.30
2010,01,24,03,05,4.30
2010,01,24,03,06,4.30
2010,01,24,03,07,4.30
2010,01,24,03,08,4.30
2010,01,24,03,09,4.30
2010,01,24,03,10,4.30
2010,01,24,03,11,4.30
2010,01,24,03,12,4.30
2010,01,24,03,13,4.20
2010,01,24,03,14,4.20
2010,01,24,03,15,4.20
2010,01,24,03,16,4.20
2010,01,24,03,17,4.20
2010,01,24,03,18,4.20
2010,01,24,03,19,4.20
2010,01,24,03,20,4.20
2010,01,24,03,21,4.20
2010,01,24,03,22,4.20
2010,01,24,03,23,4.10
2010,01,24,03,24,4.10
2010,01,24,03,25,4.10
2010,01,24,03,26,4.10
2010,01,24,03,27,4.10
2010,01,24,03,28,4.10
2010,01,24,03,29,4.10
2010,01,24,03,30,4.10
2010,01,24,03,31,4.00
2010,01,24,03,32,4.00
2010,01,24,03,33,4.00
2010,01,24,03,34,4.00
2010,01,24,03,35,4.00
2010,01,24,03,36,3.90
2010,01,24,03,37,3.90
2010,01,24,03,38,4.00
2010,01,24,03,39,4.00
2010,01,24,03,40,4.00
2010,01,24,03,41,4.00
2010,01,24,03,42,4.00
2010,01,24,03,43,4.00
2010,01,24,03,44,4.10
2010,01,24,03,45,4.10
2010,01,24,03,46,4.20
2010,01,24,03,47,4.20
2010,01,24,03,48,4.20
2010,01,24,03,49,4.20
2010,01,24,03,50,4.20
2010,01,24,03,51,4.30
2010,01,24,03,52,4.30
2010,01,24,03,53,4.30
2010,01,24,03,54,4.30
2010,01,24,03,55,4.30
2010,01,24,03,56,4.30
2010,01,24,03,57,4.30
2010,01,24,03,58,4.30
2010,01,24,03,59,4.30
2010,01,24,04,00,4.30
2010,01,24,04,01,4.30
2010,01,24,04,02,4.30
2010,01,24,04,03,4.30
2010,01,24,04,04,4.40
2010,01,24,04,05,4.40
2010,01,24,04,06,4.40
2010,01,24,04,07,4.40
2010,01,24,04,08,4.40
2010,01,24,04,09,4.40
2010,01,24,04,10,4.40
2010,01,24,04,11,4.40
2010,01,24,04,12,4.40
2010,01,24,04,13,4.40
2010,01,24,04,14,4.40
2010,01,24,04,15,4.40
2010,01,24,04,16,4.40
2010,01,24,04,17,4.40
2010,01,24,04,18,4.40
2010,01,24,04,19,4.40
2010,01,24,04,20,4.40
2010,01,24,04,21,4.50
2010,01,24,04,22,4.50
2010,01,24,04,23,4.60
2010,01,24,04,24,4.60
2010,01,24,04,25,4.60
2010,01,24,04,26,4.60
2010,01,24,04,27,4.70
2010,01,24,04,28,4.70
2010,01,24,04,29,4.70
2010,01,24,04,30,4.70
2010,01,24,04,31,4.80
2010,01,24,04,32,4.80
2010,01,24,04,33,4.80
2010,01,24,04,34,4.80
2010,01,24,04,35,4.80
2010,01,24,04,36,4.80
2010,01,24,04,37,4.80
2010,01,24,04,38,4.90
2010,01,24,04,39,4.90
2010,01,24,04,40,4.90
2010,01,24,04,41,4.90
2010,01,24,04,42,5.00
2010,01,24,04,43,5.10
2010,01,24,04,44,5.10
2010,01,24,04,45,5.20
2010,01,24,04,46,5.20
2010,01,24,04,47,5.20
2010,01,24,04,48,5.30
2010,01,24,04,49,5.30
2010,01,24,04,50,5.30
2010,01,24,04,51,5.40
2010,01,24,04,52,5.40
2010,01,24,04,53,5.40
2010,01,24,04,54,5.40
2010,01,24,04,55,5.40
2010,01,24,04,56,5.40
2010,01,24,04,57,5.50
2010,01,24,04,58,5.50
2010,01,24,04,59,5.50
2010,01,24,05,00,5.50
2010,01,24,05,01,5.50
2010,01,24,05,02,5.50
2010,01,24,05,03,5.50
2010,01,24,05,04,5.50
2010,01,24,05,05,5.50
2010,01,24,05,06,5.60
2010,01,24,05,07,5.60
2010,01,24,05,08,5.60
2010,01,24,05,09,5.70
2010,01,24,05,10,5.70
2010,01,24,05,11,5.70
2010,01,24,05,12,5.70
2010,01,24,05,13,5.70
2010,01,24,05,14,5.70
2010,01,24,05,15,5.70
2010,01,24,05,16,5.70
2010,01,24,05,17,5.80
2010,01,24,05,18,5.80
2010,01,24,05,19,5.80
2010,01,24,05,20,5.80
2010,01,24,05,21,5.80
2010,01,24,05,22,5.80
2010,01,24,05,23,5.80
2010,01,24,05,24,5.80
2010,01,24,05,25,5.90
2010,01,24,05,26,5.90
2010,01,24,05,27,5.90
2010,01,24,05,28,5.90
2010,01,24,05,29,5.90
2010,01,24,05,30,6.00
2010,01,24,05,31,6.00
2010,01,24,05,32,6.10
2010,01,24,05,33,6.10
2010,01,24,05,34,6.20
2010,01,24,05,35,6.20
2010,01,24,05,36,6.20
2010,01,24,05,37,6.20
2010,01,24,05,38,6.20
2010,01,24,05,39,6.20
2010,01,24,05,40,6.20
2010,01,24,05,41,6.20
2010,01,24,05,42,6.30
2010,01,24,05,43,6.20
2010,01,24,05,44,6.30
2010,01,24,05,45,6.30
2010,01,24,05,46,6.30
2010,01,24,05,47,6.30
2010,01,24,05,48,6.30
2010,01,24,05,49,6.30
2010,01,24,05,50,6.30
2010,01,24,05,51,6.30
2010,01,24,05,52,6.30
2010,01,24,05,53,6.30
2010,01,24,05,54,6.30
2010,01,24,05,55,6.30
2010,01,24,05,56,6.30
2010,01,24,05,57,6.30
2010,01,24,05,58,6.30
2010,01,24,05,59,6.30
2010,01,24,06,00,6.30
2010,01,24,06,01,6.30
2010,01,24,06,02,6.30
2010,01,24,06,03,6.40
2010,01,24,06,04,6.40
2010,01,24,06,05,6.40
2010,01,24,06,06,6.40
2010,01,24,06,07,6.40
2010,01,24,06,08,6.30
2010,01,24,06,09,6.30
2010,01,24,06,10,6.30
2010,01,24,06,11,6.30
2010,01,24,06,12,6.30
2010,01,24,06,13,6.30
2010,01,24,06,14,6.30
2010,01,24,06,15,6.30
2010,01,24,06,16,6.30
2010,01,24,06,17,6.20
2010,01,24,06,18,6.20
2010,01,24,06,19,6.20
2010,01,24,06,20,6.20
2010,01,24,06,21,6.20
2010,01,24,06,22,6.20
2010,01,24,06,23,6.20
2010,01,24,06,24,6.20
2010,01,24,06,25,6.20
2010,01,24,06,26,6.20
2010,01,24,06,27,6.20
2010,01,24,06,28,6.20
2010,01,24,06,29,6.20
2010,01,24,06,30,6.20
2010,01,24,06,31,6.20
2010,01,24,06,32,6.20
2010,01,24,06,33,6.10
2010,01,24,06,34,6.20
2010,01,24,06,35,6.20
2010,01,24,06,36,6.20
2010,01,24,06,37,6.20
2010,01,24,06,38,6.20
2010,01,24,06,39,6.20
2010,01,24,06,40,6.20
2010,01,24,06,41,6.20
2010,01,24,06,42,6.20
2010,01,24,06,43,6.30
2010,01,24,06,44,6.30
2010,01,24,06,45,6.30
2010,01,24,06,46,6.30
2010,01,24,06,47,6.30
2010,01,24,06,48,6.30
2010,01,24,06,49,6.30
2010,01,24,06,50,6.30
2010,01,24,06,51,6.30
2010,01,24,06,52,6.30
2010,01,24,06,53,6.30
2010,01,24,06,54,6.30
2010,01,24,06,55,6.30
2010,01,24,06,56,6.30
2010,01,24,06,57,6.30
2010,01,24,06,58,6.30
2010,01,24,06,59,6.30
2010,01,24,07,00,6.30
2010,01,24,07,01,6.30
2010,01,24,07,02,6.30
2010,01,24,07,03,6.30
2010,01,24,07,04,6.30
2010,01,24,07,05,6.30
2010,01,24,07,06,6.30
2010,01,24,07,07,6.40
2010,01,24,07,08,6.40
2010,01,24,07,09,6.40
2010,01,24,07,10,6.40
2010,01,24,07,11,6.40
2010,01,24,07,12,6.40
2010,01,24,07,13,6.40
2010,01,24,07,14,6.40
2010,01,24,07,15,6.40
2010,01,24,07,16,6.40
2010,01,24,07,17,6.40
2010,01,24,07,18,6.40
2010,01,24,07,19,6.50
2010,01,24,07,20,6.50
2010,01,24,07,21,6.50
2010,01,24,07,22,6.50
2010,01,24,07,23,6.50
2010,01,24,07,24,6.50
2010,01,24,07,25,6.50
2010,01,24,07,26,6.50
2010,01,24,07,27,6.50
2010,01,24,07,28,6.50
2010,01,24,07,29,6.60
2010,01,24,07,30,6.60
2010,01,24,07,31,6.60
2010,01,24,07,32,6.60
2010,01,24,07,33,6.60
2010,01,24,07,34,6.50
2010,01,24,07,35,6.60
2010,01,24,07,36,6.60
2010,01,24,07,37,6.60
2010,01,24,07,38,6.60
2010,01,24,07,39,6.60
2010,01,24,07,40,6.60
2010,01,24,07,41,6.60
2010,01,24,07,42,6.70
2010,01,24,07,43,6.70
2010,01,24,07,44,6.70
2010,01,24,07,45,6.70
2010,01,24,07,46,6.70
2010,01,24,07,47,6.70
2010,01,24,07,48,6.70
2010,01,24,07,49,6.70
2010,01,24,07,50,6.70
2010,01,24,07,51,6.70
2010,01,24,07,52,6.70
2010,01,24,07,53,6.70
2010,01,24,07,54,6.70
2010,01,24,07,55,6.70
2010,01,24,07,56,6.80
2010,01,24,07,57,6.80
2010,01,24,07,58,6.80
2010,01,24,07,59,6.80
2010,01,24,08,00,6.80
2010,01,24,08,01,6.80
2010,01,24,08,02,6.80
2010,01,24,08,03,6.80
2010,01,24,08,04,6.80
2010,01,24,08,05,6.80
2010,01,24,08,06,6.80
2010,01,24,08,07,6.80
2010,01,24,08,08,6.80
2010,01,24,08,09,6.80
2010,01,24,08,10,6.80
2010,01,24,08,11,6.80
2010,01,24,08,12,6.80
2010,01,24,08,13,6.80
2010,01,24,08,14,6.80
2010,01,24,08,15,6.80
2010,01,24,08,16,6.80
2010,01,24,08,17,6.70
2010,01,24,08,18,6.70
2010,01,24,08,19,6.70
2010,01,24,08,20,6.70
2010,01,24,08,21,6.70
2010,01,24,08,22,6.70
2010,01,24,08,23,6.70
2010,01,24,08,24,6.70
2010,01,24,08,25,6.70
2010,01,24,08,26,6.70
2010,01,24,08,27,6.70
2010,01,24,08,28,6.70
2010,01,24,08,29,6.70
2010,01,24,08,30,6.70
2010,01,24,08,31,6.70
2010,01,24,08,32,6.70
2010,01,24,08,33,6.70
2010,01,24,08,34,6.70
2010,01,24,08,35,6.80
2010,01,24,08,36,6.80
2010,01,24,08,37,6.80
2010,01,24,08,38,6.80
2010,01,24,08,39,6.80
2010,01,24,08,40,6.80
2010,01,24,08,41,6.80
2010,01,24,08,42,6.80
2010,01,24,08,43,6.80
2010,01,24,08,44,6.80
2010,01,24,08,45,6.80
2010,01,24,08,46,6.80
2010,01,24,08,47,6.80
2010,01,24,08,48,6.80
2010,01,24,08,49,6.90
2010,01,24,08,50,6.90
2010,01,24,08,51,6.90
2010,01,24,08,52,6.90
2010,01,24,08,53,6.90
2010,01,24,08,54,6.90
2010,01,24,08,55,6.90
2010,01,24,08,56,6.90
2010,01,24,08,57,6.90
2010,01,24,08,58,6.90
2010,01,24,08,59,6.90
2010,01,24,09,00,6.90
2010,01,24,09,01,6.90
2010,01,24,09,02,6.90
2010,01,24,09,03,6.90
2010,01,24,09,04,6.90
2010,01,24,09,05,6.90
2010,01,24,09,06,6.90
2010,01,24,09,07,6.90
2010,01,24,09,08,6.90
2010,01,24,09,09,7.00
2010,01,24,09,10,7.00
2010,01,24,09,11,7.10
2010,01,24,09,12,7.10
2010,01,24,09,13,7.10
2010,01,24,09,14,7.10
2010,01,24,09,15,7.10
2010,01,24,09,16,7.10
2010,01,24,09,17,7.10
2010,01,24,09,18,7.20
2010,01,24,09,19,7.20
2010,01,24,09,20,7.20
2010,01,24,09,21,7.20
2010,01,24,09,22,7.20
2010,01,24,09,23,7.20
2010,01,24,09,24,7.20
2010,01,24,09,25,7.20
2010,01,24,09,26,7.20
2010,01,24,09,27,7.10
2010,01,24,09,28,7.10
2010,01,24,09,29,7.20
2010,01,24,09,30,7.20
2010,01,24,09,31,7.10
2010,01,24,09,32,7.10
2010,01,24,09,33,7.10
2010,01,24,09,34,7.10
2010,01,24,09,35,7.20
2010,01,24,09,36,7.20
2010,01,24,09,37,7.20
2010,01,24,09,38,7.20
2010,01,24,09,39,7.20
2010,01,24,09,40,7.20
2010,01,24,09,41,7.20
2010,01,24,09,42,7.20
2010,01,24,09,43,7.20
2010,01,24,09,44,7.20
2010,01,24,09,45,7.20
2010,01,24,09,46,7.20
2010,01,24,09,47,7.20
2010,01,24,09,48,7.20
2010,01,24,09,49,7.20
2010,01,24,09,50,7.20
2010,01,24,09,51,7.20
2010,01,24,09,52,7.20
2010,01,24,09,53,7.20
2010,01,24,09,54,7.20
2010,01,24,09,55,7.20
2010,01,24,09,56,7.20
2010,01,24,09,57,7.20
2010,01,24,09,58,7.10
2010,01,24,09,59,7.10
2010,01,24,10,00,7.10
2010,01,24,10,01,7.10
2010,01,24,10,02,7.10
2010,01,24,10,03,7.00
2010,01,24,10,04,7.10
2010,01,24,10,05,7.10
2010,01,24,10,06,7.00
2010,01,24,10,07,7.00
2010,01,24,10,08,7.00
2010,01,24,10,09,7.00
2010,01,24,10,10,6.90
2010,01,24,10,11,6.90
2010,01,24,10,12,6.90
2010,01,24,10,13,6.90
2010,01,24,10,14,6.80
2010,01,24,10,15,6.80
2010,01,24,10,16,6.80
2010,01,24,10,17,6.70
2010,01,24,10,18,6.70
2010,01,24,10,19,6.70
2010,01,24,10,20,6.70
2010,01,24,10,21,6.70
2010,01,24,10,22,6.70
2010,01,24,10,23,6.70
2010,01,24,10,24,6.70
2010,01,24,10,25,6.70
2010,01,24,10,26,6.70
2010,01,24,10,27,6.70
2010,01,24,10,28,6.70
2010,01,24,10,29,6.70
2010,01,24,10,30,6.70
2010,01,24,10,31,6.70
2010,01,24,10,32,6.70
2010,01,24,10,33,6.70
2010,01,24,10,34,6.80
2010,01,24,10,35,6.80
2010,01,24,10,36,6.80
2010,01,24,10,37,6.80
2010,01,24,10,38,6.80
2010,01,24,10,39,6.80
2010,01,24,10,40,6.80
2010,01,24,10,41,6.80
2010,01,24,10,42,6.80
2010,01,24,10,43,6.80
2010,01,24,10,44,6.80
2010,01,24,10,45,6.90
2010,01,24,10,46,6.90
2010,01,24,10,47,6.90
2010,01,24,10,48,6.90
2010,01,24,10,49,6.90
2010,01,24,10,50,6.90
2010,01,24,10,51,6.80
2010,01,24,10,52,6.80
2010,01,24,14,59,5.20
2010,01,24,15,00,5.20
2010,01,24,15,01,5.20
2010,01,24,15,02,5.20
2010,01,24,15,03,5.20
2010,01,24,15,04,5.20
2010,01,24,15,05,5.20
2010,01,24,15,06,5.20
2010,01,24,15,07,5.20
2010,01,24,15,08,5.20
2010,01,24,15,09,5.20
2010,01,24,15,10,5.20
2010,01,24,15,11,5.20
2010,01,24,15,12,5.20
2010,01,24,15,13,5.20
2010,01,24,15,14,5.20
2010,01,24,15,15,5.20
2010,01,24,15,16,5.20
2010,01,24,15,17,5.20
2010,01,24,15,18,5.20
2010,01,24,15,19,5.20
2010,01,24,15,20,5.20
2010,01,24,15,21,5.20
2010,01,24,15,22,5.20
2010,01,24,15,23,5.20
2010,01,24,15,24,5.20
2010,01,24,15,25,5.20
2010,01,24,15,26,5.20
2010,01,24,15,27,5.20
2010,01,24,15,28,5.20
2010,01,24,15,29,5.20
2010,01,24,15,30,5.20
2010,01,24,15,31,5.20
2010,01,24,15,32,5.20
2010,01,24,15,33,5.30
2010,01,24,15,34,5.30
2010,01,24,15,35,5.30
2010,01,24,15,36,5.30
2010,01,24,15,37,5.30
2010,01,24,15,38,5.30
2010,01,24,15,39,5.30
2010,01,24,15,40,5.30
2010,01,24,15,41,5.30
2010,01,24,15,42,5.30
2010,01,24,15,43,5.30
2010,01,24,15,44,5.30
2010,01,24,15,45,5.30
2010,01,24,15,46,5.30
2010,01,24,15,47,5.30
2010,01,24,15,48,5.30
2010,01,24,15,49,5.30
2010,01,24,15,50,5.30
2010,01,24,15,51,5.30
2010,01,24,15,52,5.30
2010,01,24,15,53,5.30
2010,01,24,15,54,5.30
2010,01,24,15,55,5.30
2010,01,24,15,56,5.30
2010,01,24,15,57,5.30
2010,01,24,15,58,5.30
2010,01,24,15,59,5.30
2010,01,24,16,00,5.30
2010,01,24,16,01,5.30
2010,01,24,16,02,5.30
2010,01,24,16,03,5.30
2010,01,24,16,04,5.30
2010,01,24,16,05,5.30
2010,01,24,16,06,5.30
2010,01,24,16,07,5.30
2010,01,24,16,08,5.30
2010,01,24,16,09,5.30
2010,01,24,16,10,5.30
2010,01,24,16,11,5.30
2010,01,24,16,12,5.30
2010,01,24,16,13,5.30
2010,01,24,16,14,5.30
2010,01,24,16,15,5.30
2010,01,24,16,16,5.30
2010,01,24,16,17,5.30
2010,01,24,16,18,5.30
2010,01,24,16,19,5.30
2010,01,24,16,20,5.30
2010,01,24,16,21,5.30
2010,01,24,16,22,5.30
2010,01,24,16,23,5.30
2010,01,24,16,24,5.30
2010,01,24,16,25,5.30
2010,01,24,16,26,5.30
2010,01,24,16,27,5.40
2010,01,24,16,28,5.40
2010,01,24,16,29,5.40
2010,01,24,16,30,5.40
2010,01,24,16,31,5.40
2010,01,24,16,32,5.40
2010,01,24,16,33,5.40
2010,01,24,16,34,5.40
2010,01,24,16,35,5.40
2010,01,24,16,36,5.40
2010,01,24,16,37,5.40
2010,01,24,16,38,5.40
2010,01,24,16,39,5.40
2010,01,24,16,40,5.40
2010,01,24,16,41,5.40
2010,01,24,16,42,5.40
2010,01,24,16,43,5.40
2010,01,24,16,44,5.40
2010,01,24,16,45,5.40
2010,01,24,16,46,5.40
2010,01,24,16,47,5.40
2010,01,24,16,48,5.40
2010,01,24,16,49,5.40
2010,01,24,16,50,5.40
2010,01,24,16,51,5.40
2010,01,24,16,52,5.40
2010,01,24,16,53,5.40
2010,01,24,16,54,5.40
2010,01,24,16,55,5.40
2010,01,24,16,56,5.40
2010,01,24,16,57,5.40
2010,01,24,16,58,5.40
2010,01,24,16,59,5.40
2010,01,24,17,00,5.40
2010,01,24,17,01,5.40
2010,01,24,17,02,5.40
2010,01,24,17,03,5.40
2010,01,24,17,04,5.40
2010,01,24,17,05,5.40
2010,01,24,17,06,5.40
2010,01,24,17,07,5.40
2010,01,24,17,08,5.40
2010,01,24,17,09,5.40
2010,01,24,17,10,5.40
2010,01,24,17,11,5.40
2010,01,24,17,12,5.40
2010,01,24,17,13,5.40
2010,01,24,17,14,5.40
2010,01,24,17,15,5.40
2010,01,24,17,16,5.40
2010,01,24,17,17,5.40
2010,01,24,17,18,5.40
2010,01,24,17,19,5.40
2010,01,24,17,20,5.40
2010,01,24,17,21,5.40
2010,01,24,17,22,5.40
2010,01,24,17,23,5.40
2010,01,24,17,24,5.40
2010,01,24,17,25,5.40
2010,01,24,17,26,5.40
2010,01,24,17,27,5.40
2010,01,24,17,28,5.40
2010,01,24,17,29,5.40
2010,01,24,17,30,5.50
2010,01,24,17,31,5.50
2010,01,24,17,32,5.50
2010,01,24,17,33,5.50
2010,01,24,17,34,5.50
2010,01,24,17,35,5.40
2010,01,24,17,36,5.40
2010,01,24,17,37,5.40
2010,01,24,17,38,5.40
2010,01,24,17,39,5.40
2010,01,24,17,40,5.40
2010,01,24,17,41,5.40
2010,01,24,17,42,5.40
2010,01,24,17,43,5.40
2010,01,24,17,44,5.40
2010,01,24,17,45,5.40
2010,01,24,17,46,5.40
2010,01,24,17,47,5.40
2010,01,24,17,48,5.40
2010,01,24,17,49,5.40
2010,01,24,17,50,5.40
2010,01,24,17,51,5.40
2010,01,24,17,52,5.40
2010,01,24,17,53,5.40
2010,01,24,17,54,5.40
2010,01,24,17,55,5.40
2010,01,24,17,56,5.40
2010,01,24,17,57,5.40
2010,01,24,17,58,5.40
2010,01,24,17,59,5.40
2010,01,24,18,00,5.40
2010,01,24,18,01,5.40
2010,01,24,18,02,5.40
2010,01,24,18,03,5.40
2010,01,24,18,04,5.40
2010,01,24,18,05,5.40
2010,01,24,18,06,5.40
2010,01,24,18,07,5.40
2010,01,24,18,08,5.40
2010,01,24,18,09,5.40
2010,01,24,18,10,5.40
2010,01,24,18,11,5.40
2010,01,24,18,12,5.40
2010,01,24,18,13,5.40
2010,01,24,18,14,5.40
2010,01,24,18,15,5.40
2010,01,24,18,16,5.40
2010,01,24,18,17,5.40
2010,01,24,18,18,5.40
2010,01,24,18,19,5.50
2010,01,24,18,20,5.50
2010,01,24,18,21,5.50
2010,01,24,18,22,5.50
2010,01,24,18,23,5.50
2010,01,24,18,24,5.50
2010,01,24,18,25,5.50
2010,01,24,18,26,5.50
2010,01,24,18,27,5.50
2010,01,24,18,28,5.50
2010,01,24,18,29,5.50
2010,01,24,18,30,5.50
2010,01,24,18,31,5.50
2010,01,24,18,32,5.50
2010,01,24,18,33,5.50
2010,01,24,18,34,5.50
2010,01,24,18,35,5.60
2010,01,24,18,36,5.60
2010,01,24,18,37,5.60
2010,01,24,18,38,5.60
2010,01,24,18,39,5.60
2010,01,24,18,40,5.60
2010,01,24,18,41,5.60
2010,01,24,18,42,5.60
2010,01,24,18,43,5.60
2010,01,24,18,44,5.60
2010,01,24,18,45,5.60
2010,01,24,18,46,5.60
2010,01,24,18,47,5.60
2010,01,24,18,48,5.60
2010,01,24,18,49,5.60
2010,01,24,18,50,5.60
2010,01,24,18,51,5.60
2010,01,24,18,52,5.60
2010,01,24,18,53,5.60
2010,01,24,18,54,5.60
2010,01,24,18,55,5.60
2010,01,24,18,56,5.60
2010,01,24,18,57,5.60
2010,01,24,18,58,5.60
2010,01,24,18,59,5.60
2010,01,24,19,00,5.60
2010,01,24,19,01,5.60
2010,01,24,19,02,5.60
2010,01,24,19,03,5.60
2010,01,24,19,04,5.60
2010,01,24,19,05,5.60
2010,01,24,19,06,5.60
2010,01,24,19,07,5.60
2010,01,24,19,08,5.60
2010,01,24,19,09,5.60
2010,01,24,19,10,5.60
2010,01,24,19,11,5.60
2010,01,24,19,12,5.60
2010,01,24,19,13,5.60
2010,01,24,19,14,5.60
2010,01,24,19,15,5.70
2010,01,24,19,16,5.70
2010,01,24,19,17,5.70
2010,01,24,19,18,5.70
2010,01,24,19,19,5.70
2010,01,24,19,20,5.70
2010,01,24,19,21,5.70
2010,01,24,19,22,5.70
2010,01,24,19,23,5.70
2010,01,24,19,24,5.70
2010,01,24,19,25,5.70
2010,01,24,19,26,5.70
2010,01,24,19,27,5.70
2010,01,24,19,28,5.70
2010,01,24,19,29,5.70
2010,01,24,19,30,5.70
2010,01,24,19,31,5.70
2010,01,24,19,32,5.70
2010,01,24,19,33,5.70
2010,01,24,19,34,5.70
2010,01,24,19,35,5.60
2010,01,24,19,36,5.60
2010,01,24,19,37,5.60
2010,01,24,19,38,5.70
2010,01,24,19,39,5.70
2010,01,24,19,40,5.60
2010,01,24,19,41,5.60
2010,01,24,19,42,5.70
2010,01,24,19,43,5.70
2010,01,24,19,44,5.70
2010,01,24,19,45,5.70
2010,01,24,19,46,5.70
2010,01,24,19,47,5.70
2010,01,24,19,48,5.70
2010,01,24,19,49,5.70
2010,01,24,19,50,5.70
2010,01,24,19,51,5.70
2010,01,24,19,52,5.70
2010,01,24,19,53,5.70
2010,01,24,19,54,5.70
2010,01,24,19,55,5.70
2010,01,24,19,56,5.70
2010,01,24,19,57,5.70
2010,01,24,19,58,5.70
2010,01,24,19,59,5.70
2010,01,24,20,00,5.70
2010,01,24,20,01,5.70
2010,01,24,20,02,5.70
2010,01,24,20,03,5.70
2010,01,24,20,04,5.70
2010,01,24,20,05,5.70
2010,01,24,20,06,5.70
2010,01,24,20,07,5.70
2010,01,24,20,08,5.70
2010,01,24,20,09,5.70
2010,01,24,20,10,5.70
2010,01,24,20,11,5.70
2010,01,24,20,12,5.70
2010,01,24,20,13,5.70
2010,01,24,20,14,5.70
2010,01,24,20,15,5.70
2010,01,24,20,16,5.70
2010,01,24,20,17,5.70
2010,01,24,20,18,5.70
2010,01,24,20,19,5.70
2010,01,24,20,20,5.70
2010,01,24,20,21,5.70
2010,01,24,20,22,5.70
2010,01,24,20,23,5.70
2010,01,24,20,24,5.70
2010,01,24,20,25,5.70
2010,01,24,20,26,5.70
2010,01,24,20,27,5.70
2010,01,24,20,28,5.70
2010,01,24,20,29,5.70
2010,01,24,20,30,5.70
2010,01,24,20,31,5.70
2010,01,24,20,32,5.70
2010,01,24,20,33,5.70
2010,01,24,20,34,5.70
2010,01,24,20,35,5.70
2010,01,24,20,36,5.70
2010,01,24,20,37,5.70
2010,01,24,20,38,5.70
2010,01,24,20,39,5.70
2010,01,24,20,40,5.70
2010,01,24,20,41,5.70
2010,01,24,20,42,5.70
2010,01,24,20,43,5.70
2010,01,24,20,44,5.70
2010,01,24,20,45,5.70
2010,01,24,20,46,5.70
2010,01,24,20,47,5.70
2010,01,24,20,48,5.70
2010,01,24,20,49,5.70
2010,01,24,20,50,5.70
2010,01,24,20,51,5.70
2010,01,24,20,52,5.70
2010,01,24,20,53,5.70
2010,01,24,20,54,5.70
2010,01,24,20,55,5.70
2010,01,24,20,56,5.70
2010,01,24,20,57,5.70
2010,01,24,20,58,5.70
2010,01,24,20,59,5.70
2010,01,24,21,00,5.70
2010,01,24,21,01,5.70
2010,01,24,21,02,5.70
2010,01,24,21,03,5.70
2010,01,24,21,04,5.70
2010,01,24,21,05,5.70
2010,01,24,21,06,5.80
2010,01,24,21,07,5.80
2010,01,24,21,08,5.80
2010,01,24,21,09,5.80
2010,01,24,21,10,5.80
2010,01,24,21,11,5.80
2010,01,24,21,12,5.80
2010,01,24,21,13,5.80
2010,01,24,21,14,5.80
2010,01,24,21,15,5.80
2010,01,24,21,16,5.80
2010,01,24,21,17,5.80
2010,01,24,21,18,5.80
2010,01,24,21,19,5.80
2010,01,24,21,20,5.80
2010,01,24,21,21,5.80
2010,01,24,21,22,5.80
2010,01,24,21,23,5.80
2010,01,24,21,24,5.80
2010,01,24,21,25,5.80
2010,01,24,21,26,5.80
2010,01,24,21,27,5.80
2010,01,24,21,28,5.80
2010,01,24,21,29,5.80
2010,01,24,21,30,5.80
2010,01,24,21,31,5.80
2010,01,24,21,32,5.80
2010,01,24,21,33,5.80
2010,01,24,21,34,5.80
2010,01,24,21,35,5.80
2010,01,24,21,36,5.80
2010,01,24,21,37,5.80
2010,01,24,21,38,5.80
2010,01,24,21,39,5.80
2010,01,24,21,40,5.80
2010,01,24,21,41,5.80
2010,01,24,21,42,5.80
2010,01,24,21,43,5.80
2010,01,24,21,44,5.80
2010,01,24,21,45,5.80
2010,01,24,21,46,5.80
2010,01,24,21,47,5.80
2010,01,24,21,48,5.80
2010,01,24,21,49,5.80
2010,01,24,21,50,5.80
2010,01,24,21,51,5.80
2010,01,24,21,52,5.80
2010,01,24,21,53,5.80
2010,01,24,21,54,5.80
2010,01,24,21,55,5.80
2010,01,24,21,56,5.80
2010,01,24,21,57,5.80
2010,01,24,21,58,5.80
2010,01,24,21,59,5.80
2010,01,24,22,00,5.80
2010,01,24,22,01,5.80
2010,01,24,22,02,5.80
2010,01,24,22,03,5.80
2010,01,24,22,04,5.80
2010,01,24,22,05,5.80
2010,01,24,22,06,5.80
2010,01,24,22,07,5.80
2010,01,24,22,08,5.80
2010,01,24,22,09,5.90
2010,01,24,22,10,5.90
2010,01,24,22,11,5.90
2010,01,24,22,12,5.90